This demonstration page uses our WeatherBlox Daily Observations layout. Learn more.

Left ArrowRight Arrow

Hourly Observations for December 7, 2016

Temp ( °F °C ) Dew Point ( °F °C ) Humidity (%) Winds ( mph kmh ) Pressure ( in mb ) Visibility ( mi km ) Precip ( " mm )
12:53 am 00:53 Cloudy 1 -17.2 -5 -20.6 75 75 W 10 17 30.60 1036 10 16 0.00 0.00
1:53 am 01:53 Cloudy 0 -17.8 -6 -21.1 76 76 WNW 10 17 30.62 1037 7 11 0.00 0.00
2:53 am 02:53 Cloudy 0 -17.8 -6 -21.1 76 76 W 10 17 30.64 1038 10 16 0.00 0.03
3:53 am 03:53 Cloudy 0 -17.8 -5 -20.6 79 79 WSW 9 15 30.66 1038 7 11 0.00 0.03
4:53 am 04:53 Cloudy 0 -17.8 -6 -21.1 76 76 WSW 13 20 30.68 1039 10 16 0.00 0.00
5:53 am 05:53 Cloudy 0 -17.8 -6 -21.1 76 76 WSW 10 17 30.69 1039 8 13 0.00 0.00
6:27 am 06:27 Cloudy 0 -17.8 -6 -21.1 76 76 WSW 13 20 30.80 1043 9 14 0.00 0.00
6:37 am 06:37 Cloudy 0 -17.8 -6 -21.1 76 76 WSW 12 19 30.80 1043 8 13 0.00 0.00
6:45 am 06:45 Cloudy 0 -17.8 -6 -21.1 76 76 WSW 13 20 30.80 1043 9 14 0.00 0.00
6:53 am 06:53 Cloudy -1 -18.3 -6 -21.1 79 79 SW 14 22 30.71 1040 10 16 0.00 0.00
7:48 am 07:48 Cloudy 0 -18 -6 -21 78 78 SW 12 19 30.86 1045 10 16 0.00 0.00
7:53 am 07:53 Cloudy -1 -18.3 -6 -21.1 79 79 SW 14 22 30.72 1040 10 16 0.00 0.00
8:53 am 08:53 Partly Cloudy -2 -18.9 -7 -21.7 79 79 SW 13 20 30.75 1041 10 16 0.00 0.00
9:14 am 09:14 Mostly Cloudy -2 -18.9 -7 -21.7 79 79 SW 15 24 30.89 1046 10 16 0.00 0.00
9:53 am 09:53 Mostly Cloudy 1 -17.2 -5 -20.6 75 75 SW 14 22 30.76 1042 10 16 0.00 0.00
10:41 am 10:41 Mostly Cloudy 2 -16.7 -5 -20.6 72 72 WNW 9 15 30.86 1045 10 16 0.00 0.00
10:53 am 10:53 Mostly Cloudy 3 -16.1 -6 -21.1 66 66 WNW 10 17 30.76 1042 10 16 0.00 0.00
11:20 am 11:20 Cloudy 3 -16 -6 -21 66 66 WNW 13 20 30.86 1045 10 16 0.00 0.00
11:53 am 11:53 Cloudy 4 -15.6 -5 -20.6 66 66 W 10 17 30.76 1042 9 14 0.00 0.00
12:53 pm 12:53 Mostly Cloudy 4 -15.6 -5 -20.6 66 66 WNW 14 22 30.76 1042 10 16 0.00 0.00
1:07 pm 13:07 Partly Cloudy 4 -15.6 -5 -20.6 66 66 WNW 10 17 30.86 1045 10 16 0.00 0.00
1:53 pm 13:53 Sunny 5 -15 -5 -20.6 63 63 WNW 14 22 30.76 1042 10 16 0.00 0.00
2:53 pm 14:53 Sunny 5 -15 -6 -21.1 60 60 NW 12 19 30.78 1042 10 16 0.00 0.00
3:53 pm 15:53 Sunny 2 -16.7 -7 -21.7 65 65 NW 10 17 30.80 1043 10 16 0.00 0.00
4:53 pm 16:53 Clear 0 -17.8 -7 -21.7 72 72 NW 6 9 30.81 1043 10 16 0.00 0.00
5:53 pm 17:53 Clear -2 -18.9 -9 -22.8 72 72 VRB 3 6 30.82 1044 10 16 0.00 0.00
6:53 pm 18:53 Clear -3 -19.4 -9 -22.8 75 75 WNW 7 11 30.84 1044 10 16 0.00 0.00
7:53 pm 19:53 Clear -4 -20 -10 -23.3 75 75 WSW 3 6 30.85 1045 10 16 0.00 0.00
8:53 pm 20:53 Mostly Clear -4 -20 -10 -23.3 75 75 WSW 5 7 30.86 1045 10 16 0.00 0.00
9:53 pm 21:53 Clear -5 -20.6 -11 -23.9 75 75 SW 3 6 30.87 1045 10 16 0.00 0.00
10:53 pm 22:53 Clear -7 -21.7 -12 -24.4 79 79 S 7 11 30.87 1046 10 16 0.00 0.00
11:53 pm 23:53 Clear -8 -22.2 -13 -25 78 78 S 6 9 30.87 1045 10 16 0.00 0.00

Powered by AerisWeather